TimeCDT,TemperatureF,Dew PointF,Humidity,Sea Level PressureIn,VisibilityMPH,Wind Direction,Wind SpeedMPH,Gust SpeedMPH,PrecipitationIn,Events,Conditions,WindDirDegrees,DateUTC
12:15 AM,68.0,64.4,88,30.11,10.0,ENE,4.6,-,N/A,,Unknown,60,2013-09-11 05:15:00
12:35 AM,68.0,64.4,88,30.11,10.0,NE,5.8,-,N/A,,Unknown,50,2013-09-11 05:35:00
12:55 AM,68.0,64.4,88,30.11,10.0,East,3.5,-,N/A,,Unknown,100,2013-09-11 05:55:00
1:15 AM,68.0,64.4,88,30.11,10.0,Calm,Calm,-,N/A,,Unknown,0,2013-09-11 06:15:00
1:35 AM,68.0,62.6,83,30.11,10.0,NE,4.6,-,N/A,,Unknown,50,2013-09-11 06:35:00
1:55 AM,66.2,64.4,94,30.11,10.0,NE,4.6,-,N/A,,Unknown,40,2013-09-11 06:55:00
2:15 AM,66.2,62.6,88,30.11,10.0,ENE,5.8,-,N/A,,Unknown,60,2013-09-11 07:15:00
2:35 AM,66.2,62.6,88,30.11,10.0,NNE,3.5,-,N/A,,Unknown,30,2013-09-11 07:35:00
2:55 AM,66.2,62.6,88,30.12,10.0,NE,3.5,-,N/A,,Unknown,40,2013-09-11 07:55:00
3:15 AM,66.2,62.6,88,30.11,10.0,ENE,5.8,-,N/A,,Unknown,60,2013-09-11 08:15:00
3:35 AM,66.2,62.6,88,30.11,10.0,ENE,5.8,-,N/A,,Unknown,60,2013-09-11 08:35:00
3:55 AM,66.2,62.6,88,30.10,10.0,NE,8.1,-,N/A,,Unknown,50,2013-09-11 08:55:00
4:15 AM,66.2,62.6,88,30.10,10.0,NE,8.1,-,N/A,,Unknown,40,2013-09-11 09:15:00
4:35 AM,66.2,62.6,88,30.11,10.0,NNE,3.5,-,N/A,,Unknown,20,2013-09-11 09:35:00
4:55 AM,64.4,62.6,94,30.12,10.0,North,4.6,-,N/A,,Unknown,10,2013-09-11 09:55:00
5:15 AM,64.4,62.6,94,30.12,10.0,NNE,5.8,-,N/A,,Unknown,30,2013-09-11 10:15:00
5:35 AM,64.4,62.6,94,30.12,10.0,NE,4.6,-,N/A,,Unknown,40,2013-09-11 10:35:00
5:55 AM,64.4,62.6,94,30.13,10.0,Calm,Calm,-,N/A,,Unknown,0,2013-09-11 10:55:00
6:15 AM,64.4,62.6,94,30.13,10.0,North,5.8,-,N/A,,Unknown,10,2013-09-11 11:15:00
6:35 AM,64.4,62.6,94,30.13,10.0,NNE,3.5,-,N/A,,Unknown,20,2013-09-11 11:35:00
6:55 AM,64.4,62.6,94,30.13,10.0,Calm,Calm,-,N/A,,Unknown,0,2013-09-11 11:55:00
7:15 AM,64.4,62.6,94,30.13,10.0,NE,5.8,-,N/A,,Unknown,40,2013-09-11 12:15:00
7:35 AM,64.4,62.6,94,30.14,9.0,North,5.8,-,N/A,,Unknown,10,2013-09-11 12:35:00
7:55 AM,64.4,62.6,94,30.15,10.0,SE,4.6,-,N/A,,Unknown,130,2013-09-11 12:55:00
8:15 AM,66.2,62.6,88,30.16,10.0,Calm,Calm,-,N/A,,Unknown,0,2013-09-11 13:15:00
8:35 AM,66.2,62.6,88,30.16,10.0,Calm,Calm,-,N/A,,Unknown,0,2013-09-11 13:35:00
8:55 AM,66.2,62.6,88,30.16,10.0,North,4.6,-,N/A,,Unknown,10,2013-09-11 13:55:00
9:15 AM,66.2,62.6,88,30.16,10.0,NNE,6.9,-,N/A,,Unknown,30,2013-09-11 14:15:00
9:35 AM,66.2,62.6,88,30.16,10.0,NE,5.8,-,N/A,,Unknown,50,2013-09-11 14:35:00
9:55 AM,66.2,64.4,94,30.16,10.0,ENE,6.9,-,N/A,,Unknown,60,2013-09-11 14:55:00
10:15 AM,66.2,64.4,94,30.17,10.0,NE,6.9,-,N/A,,Unknown,40,2013-09-11 15:15:00
10:35 AM,68.0,64.4,88,30.17,10.0,ENE,6.9,-,N/A,,Unknown,60,2013-09-11 15:35:00
10:55 AM,69.8,64.4,83,30.18,10.0,NE,5.8,-,N/A,,Unknown,40,2013-09-11 15:55:00
11:15 AM,69.8,66.2,88,30.17,10.0,NE,5.8,-,N/A,,Unknown,40,2013-09-11 16:15:00
11:35 AM,71.6,66.2,83,30.18,10.0,NNE,8.1,-,N/A,Thunderstorm,Unknown,20,2013-09-11 16:35:00
11:55 AM,73.4,64.4,73,30.18,10.0,NE,11.5,-,N/A,,Unknown,40,2013-09-11 16:55:00
12:15 PM,73.4,64.4,73,30.17,10.0,NE,10.4,-,N/A,,Unknown,40,2013-09-11 17:15:00
12:35 PM,73.4,64.4,73,30.17,10.0,NE,13.8,-,N/A,,Unknown,50,2013-09-11 17:35:00
12:55 PM,75.2,64.4,69,30.17,10.0,ENE,10.4,-,N/A,,Unknown,60,2013-09-11 17:55:00
1:15 PM,77.0,66.2,69,30.17,10.0,East,11.5,-,N/A,,Unknown,80,2013-09-11 18:15:00
1:35 PM,77.0,66.2,69,30.17,10.0,ENE,12.7,-,N/A,,Unknown,60,2013-09-11 18:35:00
1:55 PM,75.2,64.4,69,30.18,10.0,NE,11.5,-,N/A,,Unknown,50,2013-09-11 18:55:00
2:15 PM,71.6,66.2,83,30.19,3.0,ENE,10.4,-,0.26,,Unknown,70,2013-09-11 19:15:00
2:35 PM,69.8,66.2,88,30.16,2.5,ENE,13.8,-,0.64,,Unknown,70,2013-09-11 19:35:00
2:55 PM,71.6,69.8,94,30.17,10.0,ENE,10.4,-,0.65,,Unknown,70,2013-09-11 19:55:00
3:15 PM,71.6,66.2,83,30.16,10.0,ENE,11.5,-,N/A,,Unknown,70,2013-09-11 20:15:00
3:35 PM,71.6,66.2,83,30.16,10.0,ENE,11.5,-,N/A,,Unknown,70,2013-09-11 20:35:00
3:55 PM,71.6,66.2,83,30.15,10.0,ENE,9.2,-,N/A,,Unknown,70,2013-09-11 20:55:00
4:15 PM,71.6,66.2,83,30.15,10.0,ENE,10.4,-,N/A,,Unknown,70,2013-09-11 21:15:00
4:35 PM,71.6,66.2,83,30.13,10.0,ENE,10.4,-,N/A,,Unknown,60,2013-09-11 21:35:00
4:55 PM,69.8,64.4,83,30.13,10.0,NE,8.1,-,N/A,,Unknown,50,2013-09-11 21:55:00
5:15 PM,71.6,66.2,83,30.14,10.0,ENE,8.1,-,N/A,,Unknown,70,2013-09-11 22:15:00
5:35 PM,71.6,64.4,78,30.15,10.0,ENE,4.6,-,N/A,,Unknown,60,2013-09-11 22:35:00
5:55 PM,71.6,64.4,78,30.15,10.0,NE,5.8,-,N/A,,Unknown,40,2013-09-11 22:55:00
6:15 PM,69.8,66.2,88,30.15,10.0,NE,6.9,-,N/A,,Unknown,40,2013-09-11 23:15:00
6:35 PM,69.8,64.4,83,30.15,10.0,ENE,3.5,-,N/A,,Unknown,70,2013-09-11 23:35:00
6:55 PM,69.8,66.2,88,30.15,10.0,NNE,5.8,-,N/A,,Unknown,20,2013-09-11 23:55:00
7:15 PM,69.8,66.2,88,30.17,10.0,SSE,4.6,-,N/A,,Unknown,160,2013-09-12 00:15:00
7:35 PM,69.8,66.2,88,30.17,10.0,South,3.5,-,N/A,,Unknown,170,2013-09-12 00:35:00
7:55 PM,69.8,66.2,88,30.18,10.0,Calm,Calm,-,N/A,,Unknown,0,2013-09-12 00:55:00
8:15 PM,69.8,66.2,88,30.18,10.0,NE,5.8,-,N/A,,Unknown,40,2013-09-12 01:15:00
8:35 PM,69.8,66.2,88,30.18,10.0,NNE,4.6,-,N/A,,Unknown,20,2013-09-12 01:35:00
8:55 PM,69.8,66.2,88,30.18,10.0,NE,4.6,-,N/A,,Unknown,40,2013-09-12 01:55:00
9:15 PM,68.0,66.2,94,30.19,10.0,NNE,6.9,-,N/A,,Unknown,30,2013-09-12 02:15:00
9:35 PM,68.0,66.2,94,30.20,10.0,NNE,4.6,-,N/A,,Unknown,20,2013-09-12 02:35:00
9:55 PM,69.8,66.2,88,30.20,10.0,Calm,Calm,-,N/A,,Unknown,0,2013-09-12 02:55:00
10:15 PM,69.8,66.2,88,30.20,10.0,Calm,Calm,-,N/A,,Unknown,0,2013-09-12 03:15:00
10:35 PM,69.8,66.2,88,30.20,10.0,SE,3.5,-,N/A,,Unknown,140,2013-09-12 03:35:00
10:55 PM,68.0,66.2,94,30.21,10.0,ESE,3.5,-,N/A,,Unknown,120,2013-09-12 03:55:00
11:15 PM,68.0,66.2,94,30.21,8.0,SE,6.9,-,N/A,,Unknown,130,2013-09-12 04:15:00
11:35 PM,68.0,66.2,94,30.21,7.0,Calm,Calm,-,0.01,,Unknown,0,2013-09-12 04:35:00
11:55 PM,68.0,66.2,94,30.20,6.0,East,3.5,-,0.01,,Unknown,90,2013-09-12 04:55:00